COSMOS 2441

Satellite information

Favourite Embed

Satellite Type and Status

PAYLOADIN ORBIT

Key statistics

Satellite COSMOS 2441 at a glance.

Uptime

6244

Days in orbit

Revolutions

≈ 14.5

Per day

Orbit

SSO

Sun Synchronous Orbit

Inclination

98.3

Latest

Satellite identification and parameters

Extended collection of information and parameters for COSMOS 2441.

Object identification

Identified? True

Debris? False

Object name: COSMOS 2441

International designator: 2008-037A

Object number (NORAD): 33272

Object ID (CCSDS): 33272

Country: COMMONWEALTH OF INDEPENDENT STATES (CIS)

Current information (Y/N): Y

RCS size: LARGE

Orbital parameters

Period: 99.105 minutes

Inclination: 98.2883 deg

SMA: 7093.976 km

Apoapsis: 727.678 km

Periapsis: 704.004 km

RAAN: 186.1469 deg

Eccentricy: 0.00166858

Argument of periapsis: 151.8352 deg

Mean anomaly: 208.375 deg

Mean motion: 14.53008584 rev/day

Mean motion (dot): 0.0000038 rev/day2

B* drag term: 0.00010275285 1/REarth

Two-line elements (TLE)

Creation date: Aug. 30, 2025, 3:38 a.m.

Reference frame: TEME

Reference center: EARTH

Epoch: Aug. 29, 2025, 8:10 p.m. UTC

TLE line 0: 0 COSMOS 2441

TLE line 1: 1 33272U 08037A 25241.84075809 .00000380 00000-0 10275-3 0 9999

TLE line 2: 2 33272 98.2883 186.1469 0016686 151.8352 208.3750 14.53008584905731

Live tracking on map

Real-time ground track for satellite COSMOS 2441.

In-orbit conjunctions

A list of the most updated potential collisions computed for object COSMOS 2441.

Target Orbit TCA Probability of collision Miss distance Type
CZ-6A DEB LEO 2025-08-10 19:34:09 0.0001520784 207.0 (m) DEBRIS
CZ-6A DEB LEO 2025-07-15 02:12:38 0.0003975123 273.0 (m) DEBRIS
FENGYUN 1C DEB SSO 2025-06-21 21:47:50 0.0002267875 545.0 (m) DEBRIS
COSMOS 1275 DEB LEO 2025-04-27 04:14:46 0.0002284663 940.0 (m) DEBRIS
NOAA 16 DEB SSO 2025-04-04 15:38:48 0.0005013912 265.0 (m) DEBRIS

Associated space launch

Electro-optical reconnaissance satellite

COSMOS 2441 was lifted into orbit during the mission ‘Soyuz 2.1b | Persona 1’, on board a Soyuz 2.1b space rocket.

The launch took place on July 26, 2008, 6:31 p.m. from 43/4 (43R).

For more information about the launch, click the button.

Launch to space Soyuz 2.1b | Persona 1
Soyuz 2.1b | Persona 1

Agency: N/A

Status: Launch Successful

Launch date: July 26, 2008, 6:31 p.m. UTC

Rocket: Soyuz 2.1b

Launch pad: 43/4 (43R)

Location: Plesetsk Cosmodrome, Russian Federation

...

Latest news about this satellite

There are no fresh news available about this satellite. Check back as we update our databases every day.


Newsletter sign-up

Weekly statistics, charts and insights to help you stay on top of the space industry.